W5UGD Weather Reports


Display with metric or nautical units.
time (UTC)temp
F
wind
direction
speed
MPH
gust
MPH
rain 1hr
in
rain 24hr
in
rain mn
in
humidity
%
barometer
mb
20260504035503 51 93 0.0 1.0 0.00 0.00 0.00 85 1016.5
20260504035003 51 93 0.0 1.0 0.00 0.00 0.00 85 1016.4
20260504034503 51 92 0.0 1.0 0.00 0.00 0.00 85 1016.4
20260504034003 51 78 0.0 1.0 0.00 0.00 0.00 85 1016.4
20260504033503 51 0 0.0 0.0 0.00 0.00 0.00 84 1016.4
20260504033003 51 0 0.0 0.0 0.00 0.00 0.00 84 1016.5
20260504032524 51 78 0.0 1.0 0.00 0.00 0.00 84 1016.5
20260504032003 51 78 0.0 1.0 0.00 0.00 0.00 84 1016.5
20260504031503 51 0 0.0 0.0 0.00 0.00 0.00 84 1016.3
20260504031003 51 0 0.0 0.0 0.00 0.00 0.00 82 1016.2
20260504030503 52 0 0.0 0.0 0.00 0.00 0.00 82 1016.3
20260504030003 52 0 0.0 0.0 0.00 0.00 0.00 81 1016.3
20260504025524 52 0 0.0 0.0 0.00 0.00 0.00 81 1016.4
20260504025024 52 0 0.0 0.0 0.00 0.00 0.00 80 1016.4
20260504024524 52 0 0.0 0.0 0.00 0.00 0.00 80 1016.3
20260504024003 53 0 0.0 0.0 0.00 0.00 0.00 79 1016.2
20260504023524 53 0 0.0 0.0 0.00 0.00 0.00 79 1016.2
20260504023024 53 0 0.0 0.0 0.00 0.00 0.00 77 1016.1
20260504022503 53 0 0.0 0.0 0.00 0.00 0.00 77 1016.1
20260504022003 54 0 0.0 0.0 0.00 0.00 0.00 76 1016.1
20260504021503 54 0 0.0 0.0 0.00 0.00 0.00 76 1016.1
20260504021003 54 0 0.0 0.0 0.00 0.00 0.00 75 1016.0
20260504020503 54 0 0.0 0.0 0.00 0.00 0.00 75 1016.0
20260504020003 54 0 0.0 0.0 0.00 0.00 0.00 72 1015.9
20260504015503 55 0 0.0 0.0 0.00 0.00 0.00 72 1015.8
20260504015003 55 0 0.0 0.0 0.00 0.00 0.00 72 1015.8
20260504014503 55 0 0.0 0.0 0.00 0.00 0.00 70 1015.7
20260504014003 56 0 0.0 0.0 0.00 0.00 0.00 71 1015.7
20260504013503 56 0 0.0 0.0 0.00 0.00 0.00 69 1015.6
20260504013024 56 0 0.0 0.0 0.00 0.00 0.00 68 1015.5
20260504012503 56 0 0.0 0.0 0.00 0.00 0.00 67 1015.5
20260504012003 57 0 0.0 0.0 0.00 0.00 0.00 66 1015.5
20260504011503 57 0 0.0 0.0 0.00 0.00 0.00 65 1015.5
20260504011003 57 0 0.0 0.0 0.00 0.00 0.00 64 1015.5
20260504010503 58 0 0.0 0.0 0.00 0.00 0.00 62 1015.5
20260504010003 58 0 0.0 0.0 0.00 0.00 0.00 63 1015.5
20260504005503 58 0 0.0 0.0 0.00 0.00 0.00 61 1015.4
20260504005003 58 0 0.0 0.0 0.00 0.00 0.00 60 1015.4
20260504004503 59 78 0.0 1.0 0.00 0.00 0.00 59 1015.4
20260504004003 59 78 0.0 1.0 0.00 0.00 0.00 58 1015.3
20260504003503 59 0 0.0 0.0 0.00 0.00 0.00 56 1015.3
20260504003003 60 0 0.0 0.0 0.00 0.00 0.00 57 1015.2
20260504002503 60 0 0.0 0.0 0.00 0.00 0.00 55 1015.2
20260504002003 61 0 0.0 0.0 0.00 0.00 0.00 56 1015.1
20260504001503 62 0 0.0 0.0 0.00 0.00 0.00 54 1015.1
20260504001003 62 78 0.0 1.0 0.00 0.00 0.00 53 1015.1
20260504000503 62 78 0.0 1.0 0.00 0.00 0.00 51 1015.1
20260504000003 63 78 0.0 1.0 0.00 0.00 0.00 53 1015.1
20260503235503 63 78 0.0 1.0 0.00 0.00 0.00 52 1015.1
20260503235003 64 78 0.0 1.0 0.00 0.00 0.00 50 1015.0
20260503234503 64 78 0.0 1.0 0.00 0.00 0.00 51 1015.1
20260503234003 64 77 0.0 1.0 0.00 0.00 0.00 48 1015.0
20260503233503 64 74 0.0 3.0 0.00 0.00 0.00 51 1015.0
20260503233003 65 73 0.0 3.0 0.00 0.00 0.00 46 1015.0
20260503232503 65 81 0.0 1.0 0.00 0.00 0.00 48 1015.0
20260503232003 65 70 0.0 2.0 0.00 0.00 0.00 45 1015.1
20260503231503 66 53 1.0 2.0 0.00 0.00 0.00 46 1015.1
20260503231003 66 35 1.0 4.0 0.00 0.00 0.00 45 1015.1
20260503230503 66 27 1.0 4.0 0.00 0.00 0.00 43 1015.1
20260503230025 66 271 1.0 3.0 0.00 0.00 0.00 45 1015.1
20260503225504 66 263 0.0 2.0 0.00 0.00 0.00 47 1015.1
20260503225003 66 51 1.0 3.0 0.00 0.00 0.00 45 1015.1
20260503224505 66 50 1.0 4.0 0.00 0.00 0.00 47 1015.2
20260503224004 67 42 1.0 4.0 0.00 0.00 0.00 43 1015.1
20260503223524 67 17 0.0 4.0 0.00 0.00 0.00 46 1015.2
20260503223005 67 37 1.0 3.0 0.00 0.00 0.00 42 1015.2
20260503222504 67 45 1.0 4.0 0.00 0.00 0.00 43 1015.3
20260503222003 67 12 1.0 6.0 0.00 0.00 0.00 45 1015.2
20260503221526 67 10 1.0 6.0 0.00 0.00 0.00 42 1015.3
20260503221004 67 52 1.0 3.0 0.00 0.00 0.00 45 1015.3
20260503220503 67 42 1.0 3.0 0.00 0.00 0.00 41 1015.4
20260503220005 67 53 1.0 3.0 0.00 0.00 0.00 43 1015.3
20260503215504 67 33 1.0 3.0 0.00 0.00 0.00 42 1015.4
20260503215003 67 359 2.0 5.0 0.00 0.00 0.00 42 1015.4
20260503214505 67 340 2.0 6.0 0.00 0.00 0.00 42 1015.4
20260503214004 67 38 1.0 6.0 0.00 0.00 0.00 41 1015.5
20260503213525 67 70 1.0 4.0 0.00 0.00 0.00 42 1015.5
20260503213005 67 10 2.0 6.0 0.00 0.00 0.00 40 1015.5
20260503212504 67 355 2.0 6.0 0.00 0.00 0.00 41 1015.6
20260503212024 68 354 2.0 5.0 0.00 0.00 0.00 39 1015.7
20260503211505 68 15 1.0 5.0 0.00 0.00 0.00 42 1015.7
20260503211004 68 46 1.0 5.0 0.00 0.00 0.00 41 1015.7
20260503210503 68 75 1.0 3.0 0.00 0.00 0.00 39 1015.8
20260503210005 68 8 2.0 4.0 0.00 0.00 0.00 38 1015.8
20260503205504 68 6 2.0 6.0 0.00 0.00 0.00 39 1015.8
20260503205004 68 3 1.0 6.0 0.00 0.00 0.00 40 1015.9
20260503204526 68 12 1.0 5.0 0.00 0.00 0.00 40 1016.0
20260503204025 68 66 2.0 6.0 0.00 0.00 0.00 40 1016.0
20260503203504 68 163 1.0 6.0 0.00 0.00 0.00 40 1016.0
20260503203004 68 165 2.0 5.0 0.00 0.00 0.00 42 1016.1
20260503202525 68 172 2.0 5.0 0.00 0.00 0.00 41 1016.2
20260503202003 68 215 2.0 6.0 0.00 0.00 0.00 38 1016.3
20260503201505 69 27 2.0 6.0 0.00 0.00 0.00 37 1016.5
20260503201004 69 22 2.0 5.0 0.00 0.00 0.00 38 1016.6
20260503200503 69 1 2.0 6.0 0.00 0.00 0.00 40 1016.7
20260503200026 69 14 2.0 6.0 0.00 0.00 0.00 40 1016.8
20260503195504 69 20 2.0 5.0 0.00 0.00 0.00 39 1016.9
20260503195003 69 219 1.0 5.0 0.00 0.00 0.00 40 1016.9
20260503194505 69 167 2.0 5.0 0.00 0.00 0.00 40 1017.0
20260503194004 69 150 1.0 4.0 0.00 0.00 0.00 39 1017.0
20260503193503 70 142 1.0 4.0 0.00 0.00 0.00 43 1017.1
20260503193026 70 157 2.0 6.0 0.00 0.00 0.00 40 1017.2
20260503192504 70 359 2.0 9.0 0.00 0.00 0.00 39 1017.2
20260503192004 71 1 2.0 9.0 0.00 0.00 0.00 40 1017.4
20260503191505 71 343 2.0 8.0 0.00 0.00 0.00 38 1017.4
20260503191004 71 357 2.0 10.0 0.00 0.00 0.00 40 1017.6
20260503190504 70 139 2.0 10.0 0.00 0.00 0.00 38 1017.7
20260503190005 70 166 2.0 5.0 0.00 0.00 0.00 37 1017.6
20260503185504 71 135 1.0 5.0 0.00 0.00 0.00 37 1017.7
20260503185004 72 46 1.0 4.0 0.00 0.00 0.00 37 1017.8
20260503184505 71 7 2.0 6.0 0.00 0.00 0.00 39 1017.8
20260503184004 71 11 2.0 7.0 0.00 0.00 0.00 40 1017.8
20260503183504 71 28 2.0 7.0 0.00 0.00 0.00 38 1017.9
20260503183005 70 10 2.0 5.0 0.00 0.00 0.00 39 1017.9
20260503182505 70 15 1.0 5.0 0.00 0.00 0.00 40 1018.0
20260503182004 70 73 1.0 5.0 0.00 0.00 0.00 38 1018.0
20260503181505 70 110 1.0 5.0 0.00 0.00 0.00 39 1018.0
20260503181025 70 32 2.0 9.0 0.00 0.00 0.00 39 1018.1
20260503180525 70 358 2.0 9.0 0.00 0.00 0.00 38 1018.1
20260503180005 69 360 2.0 7.0 0.00 0.00 0.00 39 1018.1
20260503175504 69 360 2.0 7.0 0.00 0.00 0.00 41 1018.1
20260503175004 70 11 1.0 5.0 0.00 0.00 0.00 39 1018.1
20260503174503 69 137 1.0 5.0 0.00 0.00 0.00 38 1018.3
20260503174004 69 147 1.0 5.0 0.00 0.00 0.00 40 1018.3
20260503173504 69 134 1.0 3.0 0.00 0.00 0.00 42 1018.3
20260503173003 68 133 1.0 3.0 0.00 0.00 0.00 41 1018.4
20260503172504 68 153 1.0 4.0 0.00 0.00 0.00 40 1018.5
20260503172024 68 343 2.0 6.0 0.00 0.00 0.00 40 1018.6
20260503171503 68 15 2.0 6.0 0.00 0.00 0.00 42 1018.7
20260503171004 67 75 2.0 6.0 0.00 0.00 0.00 44 1018.8
20260503170503 67 15 2.0 6.0 0.00 0.00 0.00 42 1018.9
20260503151005 63 23 1.0 4.0 0.00 0.00 0.00 46 1019.9
20260503150504 63 32 1.0 4.0 0.00 0.00 0.00 45 1020.0
20260503131005 52 239 1.0 3.0 0.00 0.00 0.00 70 1019.6
20260503130504 51 223 0.0 3.0 0.00 0.00 0.00 71 1019.6
20260503110504 40 0 0.0 0.0 0.00 0.00 0.00 93 1018.7
20260503090503 41 0 0.0 0.0 0.00 0.00 0.00 90 1017.2
20260503081503 42 0 0.0 0.0 0.00 0.00 0.00 89 1016.7
20260503081003 42 0 0.0 0.0 0.00 0.00 0.00 89 1016.7
20260503080503 42 0 0.0 0.0 0.00 0.00 0.00 89 1016.7
20260503072503 43 0 0.0 0.0 0.00 0.00 0.00 88 1016.3
20260503072003 43 0 0.0 0.0 0.00 0.00 0.00 87 1016.3
20260503071503 44 0 0.0 0.0 0.00 0.00 0.00 87 1016.2
20260503071003 44 0 0.0 0.0 0.00 0.00 0.00 86 1016.2
20260503070503 44 0 0.0 0.0 0.00 0.00 0.00 87 1016.1
20260503055003 46 0 0.0 0.0 0.00 0.00 0.00 80 1015.9
20260503054524 46 90 0.0 1.0 0.00 0.00 0.00 79 1015.9
20260503054003 46 90 0.0 1.0 0.00 0.00 0.00 79 1016.0
20260503053503 46 91 0.0 1.0 0.00 0.00 0.00 76 1016.0
20260503053024 46 90 0.0 1.0 0.00 0.00 0.00 76 1016.0
20260503052503 47 90 0.0 1.0 0.00 0.00 0.00 75 1015.9
20260503052003 47 0 0.0 0.0 0.00 0.00 0.00 73 1016.0
20260503051503 47 90 0.0 1.0 0.00 0.00 0.00 74 1015.9
20260503051024 48 90 0.0 1.0 0.00 0.00 0.00 75 1015.8
20260503050503 47 91 0.0 1.0 0.00 0.00 0.00 73 1015.9
20260503050003 47 91 0.0 1.0 0.00 0.00 0.00 75 1015.8
20260503045524 47 91 0.0 1.0 0.00 0.00 0.00 75 1015.9
20260503045003 47 0 0.0 0.0 0.00 0.00 0.00 77 1015.9
20260503044503 47 0 0.0 0.0 0.00 0.00 0.00 78 1015.9
20260503044003 47 0 0.0 0.0 0.00 0.00 0.00 77 1015.9
20260503043503 47 0 0.0 0.0 0.00 0.00 0.00 75 1015.9
20260503043003 47 0 0.0 0.0 0.00 0.00 0.00 77 1015.8
20260503042503 47 0 0.0 0.0 0.00 0.00 0.00 77 1015.8
20260503042003 47 0 0.0 0.0 0.00 0.00 0.00 75 1015.7
20260503041503 47 0 0.0 0.0 0.00 0.00 0.00 75 1015.7
20260503041024 47 91 0.0 1.0 0.00 0.00 0.00 74 1015.7
20260503040503 47 91 0.0 1.0 0.00 0.00 0.00 74 1015.5
20260503040004 48 0 0.0 0.0 0.00 0.00 0.00 73 1015.4